Temperature
17 19 20 20 20 19 19 19 19 20 18 15 17 19 20 21 20 19 18 18 18 17 16 15 15 17 16 15 15 14 14 13 12 11 10 10 9 9 8 8 7 7 6 6
19 20 20 17 16 16 17 18 19 20 16 15 17 18 20 20 19 18 18 17 17 16 15 14 13 15 16 16 16 15 15 14 13 12 12 11 10 9 9 9 8 7 7 6
19 19 16 16 17 17 18 18 19 18 17 16 15 19 22 22 19 18 17 16 16 15 15 14 13 15 16 16 16 16 16 15 14 13 12 11 10 9 9 9 9 8 7 6
18 17 16 16 17 17 18 17 16 15 17 18 16 18 21 22 21 21 20 19 17 16 15 15 15 16 17 17 17 16 16 15 15 14 13 12 12 12 12 11 11 10 9 7
19 16 16 17 17 16 17 15 15 15 16 17 17 17 21 22 22 22 21 19 17 16 16 16 17 17 18 17 17 17 16 16 15 15 14 13 13 13 11 11 11 10 10 9
17 15 15 16 15 14 15 15 14 14 16 17 17 17 20 23 22 21 20 19 17 16 16 16 17 18 18 18 18 17 17 17 16 15 15 14 14 13 12 11 11 11 10 10
17 16 15 14 15 15 15 17 19 19 18 19 15 15 19 22 21 19 18 17 16 16 16 16 16 17 17 18 18 18 17 17 17 16 16 15 15 14 13 12 11 11 11 11
18 18 16 15 16 16 16 17 18 18 19 19 15 16 20 21 19 18 17 17 16 16 16 15 15 16 16 17 17 17 17 17 17 16 16 16 15 14 14 13 12 11 11 11
18 18 15 14 14 15 16 16 16 17 17 16 17 17 18 20 21 19 19 17 16 16 15 14 15 15 16 16 16 16 16 16 16 15 15 15 15 14 14 13 12 11 11 10
17 17 16 14 13 13 14 15 15 16 16 17 18 17 19 21 21 20 18 17 16 15 14 14 14 15 15 15 15 15 15 15 15 14 14 14 14 14 13 12 12 11 10 8
16 17 16 15 15 16 14 14 15 16 16 16 17 18 19 19 19 17 17 16 15 13 13 13 13 14 14 14 15 15 15 15 14 14 14 14 13 13 13 12 12 10 9 7
14 16 16 16 14 13 14 15 15 16 17 15 16 17 20 19 17 16 16 15 13 12 12 12 12 13 13 13 14 14 14 14 14 13 13 13 13 13 12 12 11 10 8 6
13 15 16 17 15 13 13 13 13 15 15 15 15 17 19 18 18 17 15 14 13 12 12 12 12 12 12 12 13 13 13 13 13 13 13 13 12 12 12 11 10 9 7 6
13 15 16 16 17 17 15 14 13 13 14 15 16 17 19 19 18 16 14 13 12 12 11 11 11 11 11 11 12 12 12 12 12 12 12 12 12 11 10 10 9 8 6 5
12 14 15 15 15 15 14 14 14 14 14 15 16 17 17 17 15 14 13 12 11 11 11 11 10 10 10 10 10 11 11 11 11 11 11 11 10 10 10 9 8 7 6 5
11 13 13 13 14 13 13 13 14 14 14 15 15 15 16 14 13 13 13 12 11 11 10 10 10 10 10 9 9 9 10 10 10 10 10 10 10 9 9 8 8 7 6 4
12 12 12 13 12 11 12 14 14 14 14 14 14 15 14 13 13 12 12 11 11 10 10 9 9 9 9 8 8 8 8 9 9 9 9 9 9 9 8 8 7 6 5 3
12 11 12 11 11 10 15 14 13 13 14 14 13 13 13 12 11 11 11 10 10 10 9 9 8 8 8 7 7 8 8 8 8 8 8 8 8 7 7 6 6 5 4 3
9 10 11 10 10 12 14 13 12 12 13 13 12 12 11 11 11 12 11 10 9 8 8 8 7 7 7 7 7 7 7 7 7 7 7 7 7 6 6 5 5 4 3 2
6 9 10 9 8 10 14 12 10 11 12 12 11 11 11 11 10 11 10 9 8 8 7 7 7 7 7 6 6 6 6 6 5 5 5 6 5 5 4 4 4 3 2 1
8 8 8 9 9 12 13 10 10 12 13 11 11 11 10 10 9 9 8 8 7 7 7 6 6 6 7 6 6 5 5 4 4 4 4 4 4 4 3 3 3 2 0 -1
10 10 9 9 9 10 12 9 12 13 12 11 10 10 9 8 8 8 7 7 6 6 6 6 6 6 6 6 5 4 4 4 3 3 3 3 3 3 2 2 2 1 -1 -2
10 11 12 11 12 13 10 11 11 10 10 9 9 8 8 7 7 6 6 5 5 5 5 5 5 5 5 5 4 3 3 2 2 2 2 2 2 2 1 1 1 -1 -2 -3
10 9 10 10 11 11 11 10 10 9 9 8 7 7 6 6 5 5 4 4 4 5 5 4 4 4 4 4 4 3 2 2 1 1 1 1 1 1 1 0 -0 -1 -2 -3
10 10 9 10 11 10 10 9 8 7 7 6 6 5 5 4 4 3 4 4 4 4 4 4 4 3 3 3 2 2 1 1 0 0 0 -0 -0 -0 -0 -0 -1 -1 -2 -4
9 9 9 10 10 10 9 8 7 6 5 5 4 4 4 3 3 3 3 3 3 3 3 3 3 2 2 1 1 2 1 0 -0 -1 -1 -1 -1 -1 -1 -1 -1 -1 -2 -3
Wind_Speed
1 5 8 8 7 8 8 11 16 15 4 6 16 24 29 25 19 21 21 21 21 22 20 17 18 20 20 21 21 22 22 23 20 17 17 17 17 15 15 18 21 22 22 22
5 9 7 3 2 5 8 11 15 11 2 6 15 25 26 20 14 14 16 16 16 17 15 15 16 17 20 22 22 23 24 23 23 19 18 15 15 14 16 17 21 24 24 23
9 3 2 3 4 6 9 9 11 9 8 6 9 13 11 8 5 8 8 9 10 11 12 12 14 17 19 21 23 21 24 24 24 22 15 13 13 12 14 17 17 23 25 25
7 3 3 5 6 6 8 4 7 7 8 6 5 8 11 9 10 10 13 12 11 8 7 8 10 14 18 19 18 20 21 22 22 22 20 21 18 19 19 16 16 19 25 26
5 2 4 5 4 5 4 1 3 5 6 7 4 5 10 7 9 15 15 15 14 12 9 7 8 11 14 16 17 17 19 20 21 23 23 23 22 20 16 16 18 19 20 26
6 1 3 2 0 2 2 2 2 2 3 4 2 4 8 4 7 11 13 14 15 14 12 9 7 7 10 13 15 17 19 21 22 23 24 26 26 23 20 20 18 17 16 18
3 2 2 2 2 2 3 5 4 3 3 3 2 6 10 9 7 8 11 13 14 14 14 13 10 8 7 11 14 16 19 21 22 23 25 26 26 25 24 22 20 19 16 17
4 2 2 3 3 3 2 4 4 5 6 6 3 7 9 10 9 7 6 9 13 17 16 14 12 10 8 8 11 15 18 19 20 22 23 23 23 19 19 22 20 19 17 18
3 3 2 0 1 2 2 3 2 5 6 7 7 7 12 10 3 5 10 15 18 18 17 16 15 12 10 8 8 12 15 16 17 19 20 21 22 22 21 20 20 19 18 16
3 6 2 1 2 1 2 2 3 4 5 7 7 7 7 10 13 14 16 18 19 18 16 16 14 14 12 10 8 7 11 13 14 16 17 16 19 21 21 19 22 21 20 19
3 5 3 3 5 4 4 4 5 5 5 6 9 8 6 11 12 13 16 18 17 15 14 14 13 13 12 11 9 7 6 9 11 13 15 17 18 18 19 20 21 20 19 19
3 3 6 5 1 1 4 5 6 6 8 8 10 12 9 9 7 11 16 16 13 12 12 13 14 14 14 13 12 9 7 8 9 11 13 15 16 17 18 20 20 19 19 19
5 4 6 4 3 3 5 6 7 7 8 12 12 13 2 6 15 16 15 12 11 11 13 15 15 16 16 15 14 12 9 8 8 9 12 14 15 17 18 19 18 18 19 19
5 6 11 13 14 10 10 10 9 10 12 17 21 26 27 26 21 15 13 11 10 11 13 16 17 18 17 16 15 14 13 10 8 9 11 14 15 16 17 17 17 17 18 19
5 8 12 17 18 16 18 21 20 21 22 23 29 30 29 22 14 11 12 11 11 13 16 18 19 19 19 18 17 15 14 12 10 10 12 13 13 14 14 15 16 17 18 19
4 6 6 14 17 18 23 26 28 27 26 27 29 28 16 6 8 12 14 13 12 15 18 20 21 20 20 19 18 17 16 14 12 12 13 13 12 13 14 15 15 17 18 18
5 6 9 14 10 11 16 17 19 15 15 15 16 10 7 11 14 17 17 14 13 17 19 21 21 20 19 18 16 16 16 16 14 13 13 12 12 12 13 14 15 16 17 17
9 7 7 8 7 11 9 2 6 11 14 14 13 10 10 13 16 16 15 12 15 19 20 21 19 18 17 16 15 15 16 15 14 14 13 12 11 12 13 14 15 16 15 16
10 9 7 5 7 13 11 8 3 5 9 5 1 6 14 17 18 16 11 12 18 20 20 18 17 16 15 15 15 16 17 16 15 15 14 12 11 12 13 14 15 14 14 16
4 7 7 5 6 8 7 3 0 3 7 3 4 16 21 22 21 17 17 19 20 20 17 15 14 15 15 15 15 16 17 17 16 16 16 16 14 14 14 15 14 13 13 15
4 5 8 9 9 11 8 0 2 5 6 5 16 23 23 21 19 21 22 21 19 18 16 14 13 14 15 15 15 16 17 17 17 17 17 16 16 15 14 14 12 12 12 13
6 6 7 6 9 10 3 4 5 11 16 21 24 22 22 23 24 23 22 19 16 14 14 14 14 15 16 16 15 17 18 18 17 17 17 17 16 14 11 12 11 11 11 12
8 8 6 9 11 9 4 9 15 19 23 23 20 22 23 24 24 21 16 14 13 13 14 14 14 16 17 16 16 18 19 18 18 17 17 17 16 14 12 11 11 10 10 10
7 9 12 14 16 18 19 21 21 20 21 22 23 23 22 20 17 14 11 11 12 14 14 15 16 17 19 18 18 18 18 17 17 17 17 16 15 14 12 9 8 9 9 10
12 8 14 21 22 22 16 15 17 21 23 23 20 17 14 11 10 9 10 12 13 14 15 15 16 18 20 19 19 19 18 17 17 17 15 15 13 13 11 9 9 10 11 11
18 21 19 21 21 22 23 21 22 21 19 17 14 11 7 6 8 10 11 13 14 16 17 17 18 20 21 20 20 19 17 16 16 14 14 12 11 11 10 9 9 12 15 17
Wind_Direction
277 249 260 279 265 278 284 281 287 293 290 259 273 282 287 292 283 269 268 266 260 254 250 233 219 214 212 210 207 205 203 203 202 202 206 209 213 214 215 216 213 209 208 206
254 258 280 286 226 238 255 276 288 298 251 260 292 289 288 292 290 286 284 282 276 269 258 238 223 214 212 210 208 207 206 204 203 205 206 210 215 219 218 217 217 213 211 208
256 296 113 191 227 247 259 263 287 298 310 255 302 296 297 317 326 315 310 304 299 282 269 248 227 220 216 214 211 210 208 207 206 205 205 207 213 220 217 217 217 215 213 211
261 271 221 243 253 249 278 275 268 283 301 304 336 305 303 331 347 21 21 16 6 349 306 270 241 225 221 220 218 217 214 212 209 205 207 205 208 215 218 217 217 215 213 213
267 236 229 253 269 231 277 0 260 272 279 286 259 264 290 320 0 15 19 21 19 12 355 323 273 242 229 220 217 218 218 216 212 209 211 213 220 225 225 219 220 218 214 215
266 271 251 265 345 231 234 242 204 202 237 257 224 260 290 331 354 351 360 10 14 10 3 349 321 269 240 222 216 214 215 217 213 212 214 217 222 224 224 221 219 218 216 215
276 201 191 205 230 184 232 284 287 270 255 258 146 256 261 283 315 319 328 345 356 357 355 347 338 313 265 232 221 217 217 220 214 214 217 220 224 226 227 225 222 219 218 216
302 276 183 209 251 294 240 271 299 301 293 298 242 249 265 290 305 304 318 342 352 354 350 343 337 324 302 263 234 225 223 225 219 218 220 223 225 227 231 229 226 224 224 222
282 292 111 85 258 250 235 226 318 284 279 276 261 268 288 281 295 356 357 358 354 350 346 343 341 338 329 310 269 238 232 231 227 224 225 226 225 227 231 232 231 231 229 226
262 280 258 134 166 110 297 207 204 248 279 280 268 263 260 292 321 341 350 351 347 347 347 347 347 345 342 335 316 275 246 240 235 229 227 230 229 230 232 233 233 231 231 227
226 262 262 225 226 229 180 194 225 247 259 275 287 270 258 287 322 339 342 343 343 346 348 349 349 348 346 346 340 319 279 255 244 236 233 232 234 233 233 235 236 235 233 228
201 250 269 260 122 288 238 237 219 251 265 250 277 281 276 289 322 335 335 339 344 349 352 354 351 350 351 349 343 332 307 277 257 246 241 240 239 237 237 238 239 236 234 230
170 229 282 266 212 190 225 226 224 246 274 266 268 275 264 278 310 327 337 342 345 352 355 355 352 349 346 342 339 333 320 297 275 256 247 246 243 241 241 241 239 236 233 230
199 234 245 265 283 292 265 250 230 233 260 269 263 276 289 301 321 334 340 342 342 348 352 349 345 342 339 335 333 330 325 314 291 268 256 253 250 247 246 245 241 236 232 229
201 249 252 262 274 278 272 270 261 251 257 267 276 283 292 315 331 337 337 336 333 340 343 342 337 333 330 329 328 327 323 317 304 282 269 264 263 258 252 247 243 237 232 229
219 252 263 269 271 274 273 268 264 263 262 263 271 279 303 349 345 337 335 331 323 331 334 332 329 326 324 324 323 322 319 317 308 291 280 276 270 262 254 249 244 238 233 230
222 243 276 283 300 293 271 260 256 247 246 253 268 293 358 339 336 330 324 320 317 323 325 323 321 320 319 319 320 318 316 314 308 297 290 285 277 269 262 255 248 242 236 231
242 244 266 285 288 253 260 290 269 263 265 267 272 295 323 327 322 312 308 311 316 320 318 317 317 316 314 315 316 314 312 310 306 301 296 291 281 274 269 260 251 244 237 232
224 222 240 253 265 277 283 287 261 257 279 276 275 334 330 328 317 311 323 317 313 314 313 312 311 309 308 310 315 313 309 309 307 304 303 300 286 278 273 264 256 248 239 234
170 208 226 224 247 269 287 107 8 271 277 146 336 329 328 327 318 318 326 316 312 312 312 313 309 307 307 312 316 310 308 308 308 309 307 305 300 288 279 272 265 253 242 236
155 188 215 231 244 267 280 126 217 255 324 346 320 320 319 314 308 310 312 310 310 310 313 315 312 309 309 314 313 308 308 308 310 309 307 305 301 295 287 280 269 257 245 238
212 216 219 221 228 252 203 170 229 302 316 312 313 314 313 310 309 309 309 310 312 315 316 317 314 310 310 313 313 308 307 310 311 309 307 305 305 302 291 281 271 257 244 238
226 231 244 225 240 272 240 263 294 305 305 309 312 311 310 307 306 309 310 311 314 314 314 314 311 308 308 311 311 306 307 311 310 308 306 307 307 304 296 283 272 259 242 237
244 246 253 264 266 275 284 290 295 303 309 311 309 308 307 305 308 311 312 313 315 314 314 314 311 308 308 311 310 306 307 309 307 305 306 308 308 306 300 284 267 255 243 237
252 256 258 265 278 287 286 295 305 310 308 307 308 309 309 311 315 317 314 314 314 311 309 309 307 305 306 309 307 306 308 309 306 303 304 306 305 303 299 287 268 259 248 241
243 250 260 272 287 297 302 309 312 309 308 309 310 312 322 325 318 315 311 310 308 307 308 308 306 306 307 308 305 305 307 306 303 302 303 305 305 303 296 292 284 261 253 254
Height
1555 1554 1548 1547 1548 1548 1549 1547 1543 1538 1540 1544 1532 1520 1505 1501 1504 1501 1499 1498 1496 1495 1497 1499 1499 1501 1503 1505 1507 1510 1512 1515 1517 1518 1519 1520 1521 1523 1524 1525 1527 1529 1530 1531
1552 1549 1547 1550 1551 1551 1550 1547 1540 1535 1542 1542 1530 1517 1501 1497 1497 1496 1494 1492 1490 1489 1490 1492 1492 1493 1495 1497 1500 1502 1504 1507 1508 1509 1511 1513 1515 1515 1516 1517 1518 1520 1521 1522
1549 1547 1550 1550 1549 1549 1546 1545 1539 1540 1538 1538 1537 1511 1495 1491 1495 1494 1492 1489 1486 1485 1485 1486 1486 1486 1488 1490 1492 1495 1497 1499 1501 1503 1505 1505 1506 1505 1505 1506 1507 1509 1511 1512
1548 1548 1550 1549 1547 1547 1542 1543 1545 1545 1541 1531 1537 1526 1497 1490 1491 1490 1489 1488 1486 1484 1482 1482 1481 1482 1483 1484 1487 1489 1491 1493 1494 1495 1495 1494 1494 1493 1494 1496 1498 1499 1500 1501
1544 1548 1548 1547 1545 1546 1542 1546 1545 1544 1541 1537 1532 1531 1503 1491 1489 1488 1489 1489 1487 1485 1482 1481 1479 1479 1479 1480 1481 1483 1484 1485 1486 1486 1486 1486 1485 1486 1488 1488 1487 1488 1488 1490
1546 1548 1548 1546 1547 1547 1546 1545 1545 1544 1539 1534 1529 1528 1507 1489 1491 1491 1490 1490 1488 1486 1483 1481 1479 1477 1476 1475 1475 1475 1476 1476 1476 1476 1476 1476 1476 1477 1478 1477 1476 1476 1476 1477
1543 1545 1547 1548 1546 1546 1545 1540 1533 1530 1529 1525 1533 1531 1508 1489 1491 1493 1493 1491 1489 1486 1483 1480 1477 1474 1472 1471 1469 1468 1468 1467 1467 1467 1467 1467 1467 1468 1468 1468 1467 1466 1465 1464
1544 1540 1544 1546 1545 1543 1543 1541 1538 1538 1530 1523 1531 1525 1497 1488 1491 1492 1493 1491 1489 1486 1482 1478 1474 1471 1468 1466 1464 1462 1461 1460 1459 1458 1458 1458 1458 1458 1458 1458 1457 1455 1454 1454
1543 1542 1545 1546 1546 1544 1542 1541 1541 1538 1534 1538 1521 1513 1499 1486 1486 1489 1489 1488 1487 1484 1480 1476 1471 1468 1465 1462 1459 1457 1455 1453 1452 1451 1450 1450 1449 1449 1448 1448 1447 1445 1444 1444
1544 1544 1542 1546 1547 1547 1545 1542 1543 1539 1537 1530 1518 1514 1500 1485 1483 1485 1487 1487 1485 1483 1478 1474 1470 1466 1463 1460 1456 1453 1451 1448 1447 1445 1443 1442 1441 1440 1439 1438 1437 1435 1434 1434
1545 1544 1540 1542 1541 1537 1544 1544 1540 1535 1535 1530 1519 1507 1491 1488 1488 1489 1489 1487 1485 1482 1478 1473 1470 1466 1463 1459 1456 1452 1449 1446 1443 1441 1439 1437 1435 1433 1431 1429 1427 1426 1424 1423
1545 1543 1539 1536 1540 1541 1538 1535 1535 1534 1525 1528 1520 1505 1486 1488 1490 1491 1489 1487 1484 1481 1477 1474 1470 1466 1462 1459 1455 1451 1447 1444 1441 1438 1435 1432 1429 1426 1423 1421 1419 1416 1414 1413
1546 1543 1540 1532 1538 1542 1539 1536 1535 1531 1528 1521 1518 1499 1484 1486 1486 1487 1488 1486 1483 1480 1477 1473 1470 1466 1462 1458 1454 1450 1445 1441 1438 1434 1430 1426 1423 1420 1416 1413 1410 1407 1405 1403
1544 1540 1538 1534 1525 1525 1530 1531 1533 1532 1524 1512 1502 1490 1482 1481 1483 1487 1487 1485 1482 1480 1476 1473 1469 1465 1461 1456 1452 1447 1442 1438 1433 1429 1424 1420 1417 1412 1408 1404 1401 1397 1394 1392
1543 1537 1532 1528 1525 1526 1526 1523 1520 1520 1512 1507 1492 1488 1481 1484 1487 1488 1486 1484 1481 1478 1474 1471 1467 1462 1457 1452 1447 1442 1437 1433 1428 1423 1418 1414 1409 1404 1400 1396 1392 1388 1385 1382
1541 1536 1534 1529 1525 1524 1521 1514 1509 1506 1502 1498 1492 1488 1486 1489 1489 1487 1484 1482 1478 1475 1472 1468 1464 1459 1453 1448 1442 1437 1432 1427 1421 1416 1412 1407 1401 1396 1392 1387 1382 1378 1375 1372
1536 1535 1532 1523 1523 1525 1514 1499 1497 1496 1492 1492 1488 1485 1489 1488 1487 1485 1482 1479 1476 1473 1469 1464 1460 1454 1449 1443 1437 1431 1426 1420 1415 1409 1404 1399 1393 1388 1383 1378 1373 1369 1365 1363
1531 1533 1531 1526 1527 1523 1495 1492 1493 1492 1488 1487 1487 1489 1489 1488 1486 1483 1478 1475 1472 1469 1464 1459 1454 1448 1443 1437 1431 1426 1420 1414 1408 1402 1397 1391 1385 1379 1374 1369 1364 1360 1356 1353
1530 1530 1528 1529 1521 1505 1494 1491 1492 1491 1486 1485 1486 1487 1486 1483 1479 1475 1474 1471 1468 1464 1459 1453 1448 1442 1436 1431 1425 1419 1413 1407 1400 1394 1388 1382 1376 1370 1364 1359 1355 1351 1347 1344
1531 1530 1527 1528 1527 1510 1488 1492 1492 1493 1486 1485 1485 1484 1481 1478 1473 1469 1470 1467 1462 1458 1452 1446 1441 1436 1430 1424 1418 1411 1405 1399 1392 1386 1380 1374 1368 1362 1356 1351 1346 1342 1338 1335
1527 1528 1526 1521 1518 1498 1487 1491 1493 1491 1482 1485 1483 1480 1478 1476 1472 1467 1464 1460 1456 1451 1446 1440 1435 1430 1424 1418 1411 1404 1397 1391 1385 1378 1372 1366 1360 1354 1348 1343 1338 1334 1331 1328
1515 1515 1515 1514 1511 1499 1486 1489 1487 1483 1482 1482 1479 1476 1473 1469 1465 1461 1456 1452 1448 1444 1440 1435 1429 1424 1418 1412 1404 1397 1390 1384 1377 1371 1364 1358 1353 1347 1341 1335 1331 1327 1323 1320
1511 1505 1498 1498 1492 1484 1485 1484 1483 1482 1479 1477 1474 1471 1468 1463 1458 1454 1450 1446 1443 1439 1434 1429 1423 1417 1412 1406 1399 1390 1383 1376 1369 1363 1357 1351 1346 1340 1334 1329 1324 1320 1317 1314
1503 1501 1497 1490 1481 1482 1482 1481 1480 1479 1476 1472 1469 1465 1461 1456 1452 1448 1445 1441 1438 1433 1428 1423 1417 1410 1404 1398 1392 1384 1376 1369 1362 1356 1350 1345 1339 1334 1328 1323 1319 1314 1311 1308
1498 1494 1489 1483 1480 1478 1476 1477 1476 1474 1471 1466 1462 1459 1455 1451 1447 1445 1441 1437 1433 1428 1423 1417 1410 1403 1396 1389 1383 1377 1370 1363 1356 1350 1344 1339 1333 1328 1322 1318 1313 1309 1305 1303
1490 1488 1483 1475 1475 1474 1472 1473 1471 1467 1463 1460 1456 1453 1450 1447 1444 1441 1437 1433 1428 1422 1416 1409 1403 1396 1388 1381 1374 1369 1363 1356 1350 1344 1338 1333 1328 1323 1317 1312 1307 1303 1300 1297